This demonstration page uses our WeatherBlox Daily Observations layout. Learn more.

Left ArrowRight Arrow

36.17497, -115.13722

Hourly Observations for August 9, 2016

Temp ( °F °C ) Dew Point ( °F °C ) Humidity (%) Winds ( mph kmh ) Pressure ( in mb ) Visibility ( mi km ) Precip ( " mm )
12:53 am 00:53 Clear 87 30.6 32 0 14 14 S 8 13 29.68 1005 10 16.0934 0 0
1:53 am 01:53 Clear 89 31.7 20 -6.7 8 8 SSW 9 15 29.68 1005 10 16.0934 0 0
2:53 am 02:53 Clear 86 30 24 -4.4 10 10 SSW 8 13 29.69 1006 10 16.0934 0 0
3:53 am 03:53 Clear 85 29.4 25 -3.9 11 11 SSW 7 11 29.7 1006 10 16.0934 0 0
4:53 am 04:53 Clear 81 27.2 28 -2.2 14 14 E 6 9 29.71 1006 10 16.0934 0 0
5:53 am 05:53 Clear 82 27.8 33 0.6 17 17 SE 5 7 29.73 1007 10 16.0934 0 0
6:53 am 06:53 Sunny 81 27.2 34 1.1 18 18 ESE 6 9 29.75 1007 10 16.0934 0 0
7:53 am 07:53 Sunny 86 30 36 2.2 17 17 ENE 5 7 29.76 1008 10 16.0934 0 0
8:53 am 08:53 Sunny 90 32.2 39 3.9 17 17 SSE 12 19 29.76 1008 10 16.0934 0 0
9:53 am 09:53 Sunny 93 33.9 39 3.9 15 15 S 16 26 29.77 1008 10 16.0934 0 0
10:53 am 10:53 Sunny 95 35 36 2.2 13 13 S 16 26 29.75 1008 10 16.0934 0 0
11:53 am 11:53 Sunny 98 36.7 27 -2.8 8 8 S 21 33 29.75 1008 10 16.0934 0 0
12:53 pm 12:53 Sunny 100 37.8 24 -4.4 7 7 SSW 18 30 29.74 1007 10 16.0934 0 0
1:53 pm 13:53 Sunny 102 38.9 22 -5.6 6 6 S 18 30 29.71 1006 10 16.0934 0 0
2:53 pm 14:53 Sunny 102 38.9 23 -5 6 6 S 22 35 29.7 1006 10 16.0934 0 0
3:03 pm 15:03 Sunny 102 39 21 -6 5 5 S 21 33 29.5 999 10 16.0934 0 0
3:53 pm 15:53 Sunny 103 39.4 20 -6.7 5 5 SW 15 24 29.68 1005 10 16.0934 0 0
4:53 pm 16:53 Sunny 103 39.4 21 -6.1 5 5 WSW 22 35 29.67 1005 10 16.0934 0 0
5:53 pm 17:53 Sunny 101 38.3 20 -6.7 5 5 SW 18 30 29.67 1005 10 16.0934 0 0
6:53 pm 18:53 Sunny 99 37.2 29 -1.7 8 8 WSW 15 24 29.67 1005 10 16.0934 0 0
7:53 pm 19:53 Clear 97 36.1 40 4.4 14 14 S 12 19 29.68 1005 10 16.0934 0 0
8:53 pm 20:53 Clear 95 35 31 -0.6 10 10 S 15 24 29.7 1006 10 16.0934 0 0
9:53 pm 21:53 Clear 93 33.9 35 1.7 13 13 SSW 15 24 29.73 1007 10 16.0934 0 0
10:53 pm 22:53 Clear 91 32.8 37 2.8 15 15 SSW 15 24 29.74 1007 10 16.0934 0 0
11:53 pm 23:53 Clear 89 31.7 44 6.7 21 21 SSW 13 20 29.75 1008 10 16.0934 0 0

Powered by AerisWeather